User: anonymous   Login
Location: Radomski Observatory
(40.2854°N, 79.5145°W)
Time: 14:06:52
(UTC-04:00)
Language:

Uosat F - Orbit

View from above orbital plane
View from above orbital plane
View from above satellite
View from above satellite

Ground track
Ground track

The orbit data is extracted from the following two-line orbital elements,

1 21575U 91050B   15147.86224708  .00000110  00000-0  49032-4 0  9994
2 21575 098.7378 135.5638 0007785 024.8296 035.2078 14.40630471253109
Epoch (UTC): 27 May 2015 20:41:38
Eccentricity: 0.0007785
inclination: 98.7378°
perigee height: 751 km
apogee height: 762 km
right ascension of ascending node: 135.5638°
argument of perigee: 24.8296°
revolutions per day: 14.40630471
mean anomaly at epoch: 35.2078°
orbit number at epoch: 25310

The dashed part of the orbit path shows where the satellite is in the earth's shadow,  

DLR